Tracking 28790 objects as of 19-Apr-2024
HD Live streaming from Space Station
objects crossing your sky now

CZ-3A R/B

Track CZ-3A R/B now!


NORAD ID: 33464
Int'l Code: 2008-066B
Perigee: 439.0 km
Apogee: 34,801.5 km
Inclination: 24.5 °
Period: 616.4 minutes
Semi major axis: 23991 km
RCS: 14.7347 m2 (large)
Launch date: December 23, 2008
Source: People's Republic of China (PRC)
Launch site: Xichang Space Center, China (XSC)

Note: This is a ROCKET BODY
Your satellite tracking list
Your tracking list is empty




NASA's NSSDC Master Catalog

Two Line Element Set (TLE):
1 33464U 08066B   24109.74969880  .00000321  00000-0  11254-2 0  9998
2 33464  24.5465 160.0281 7161468 162.8732 247.3699  2.33627029129723
Source of the keplerian elements: AFSPC